GALAXY 34 (G-34)

Last updated on Mon Nov 03 2025 00:03:00 GMT+0000 (Coordinated Universal Time)

1 54027U 22128B 25306.50952910 .00000071 00000+0 00000+0 0 9996 2 54027 0.0108 299.9794 0001452 279.0003 237.4926 1.00270538 11642
UTC large
Height (km)
Speed (km/s)
/
Latitude / Longitude
Inclination (degrees)
Orbital Period (minutes)
Azimuth
Elevation
Range (km)
Doppler Factor

Next 0 passes for location: London (51.5072 / 0.1276)

Sorry there are no passes over London.